Simultaneous Nadir Overpasses (SNOs) Predictions

Prediction of SNOs between GOES-17 and METOP-B Satellite Orbit:

Table of predicted SNOs for the next 14.0 days since TLE Epoch: 9/7/2024
Index Date Time (GOES-17) GOES-17 Lat,Lon METOP-B Lat,Lon Distance(km) Time Diff (sec)
1 09/07/2024 04:15:08 0.00,-104.68 0.18,-104.03 75.42 2
2 09/08/2024 16:32:41 -0.00,-104.73 0.84,-108.60 440.88 80
3 09/09/2024 16:14:40 0.00,-104.73 -0.24,-103.61 127.66 80
4 09/11/2024 04:33:40 -0.01,-104.68 -0.79,-108.21 402.21 80
5 09/12/2024 04:10:19 -0.01,-104.68 0.29,-103.22 166.09 80
6 09/13/2024 16:29:11 0.01,-104.72 0.68,-107.80 350.51 80
7 09/14/2024 16:11:10 0.01,-104.71 -0.42,-102.80 217.92 80
8 09/16/2024 04:30:08 -0.01,-104.67 -0.64,-107.40 311.76 80
9 09/17/2024 04:06:48 -0.01,-104.66 0.47,-102.41 256.69 80
10 09/18/2024 16:25:38 0.01,-104.70 0.52,-106.98 259.53 80
11 09/19/2024 16:07:38 0.01,-104.70 -0.60,-101.99 309.27 80
